Home   Weather   Redlands   Past weeks

Flag for USA Past Weather in Redlands, California, USA — Yesterday and Last 2 Weeks

Now
55 °F

Passing clouds.


Feels Like: 53 °F
Forecast: 36 / 53 °F
Wind: 8 mph from Northwest

Location: Norton Air Force Base / San Bern

Current Time: Feb 23, 2017 at 10:24:08 am

Latest Report: Feb 23, 2017 at 9:50 am


Visibility: 10 mi

Pressure: 30.06 "Hg

Humidity: 26%

Dew Point: 21 °F

Location of RedlandsLocation

Past Weather in Redlands — Graph

°F

Redlands Temperature Yesterday

Maximum temperature yesterday: 64 °F (at 1:47 pm)
Minimum temperature yesterday: 46 °F (at 10:58 pm)
Average temperature yesterday: 55 °F

High & Low Weather Summary for the Past Weeks

 TemperatureHumidityPressure
High81 °F (Feb 9, 12:50 pm)94% (Feb 17, 8:50 pm)30.36 "Hg (Feb 17, 8:50 pm)
Low39 °F (Feb 23, 6:50 am)15% (Feb 14, 4:50 pm)29.50 "Hg (Feb 17, 6:50 pm)
Average57 °F68%30.02 "Hg
* Reported Feb 8 8:46 am — Feb 23 8:50 am, Redlands, Weather by CustomWeather, © 2017

Note: Actual official high and low records may vary slightly from our data, if they occured in-between our weather recording intervals... More about our weather records

Advertising

Redlands Weather History for the Previous 24 Hours

Scroll right to see more
 ConditionsComfort  
Time TempWeatherWind HumidityBarometerVisibility
8:50 am
Thu, Feb 23
50 °FSunny.No wind50%30.06 "Hg10 mi
7:50 am46 °FSunny.No wind57%30.07 "Hg10 mi
6:50 am39 °FPassing clouds.3 mph75%30.05 "Hg10 mi
5:38 am41 °FClear.5 mph70%30.02 "Hg10 mi
5:18 am42 °FClear.No wind68%30.02 "Hg10 mi
4:58 am42 °FClear.5 mph68%30.01 "Hg10 mi
4:38 am43 °FClear.No wind67%30.01 "Hg10 mi
4:18 am43 °FClear.No wind67%30.01 "Hg10 mi
3:58 am44 °FClear.No wind69%30.01 "Hg10 mi
3:38 am43 °FClear.No wind73%30.01 "Hg10 mi
2:58 am45 °FClear.No wind77%30.02 "Hg10 mi
2:38 am45 °FClear.No wind79%30.02 "Hg10 mi
2:18 am46 °FClear.No wind77%30.02 "Hg10 mi
1:58 am46 °FPassing clouds.No wind75%30.03 "Hg10 mi
1:38 am46 °FPassing clouds.No wind75%30.03 "Hg10 mi
1:18 am47 °FPartly cloudy.No wind73%30.04 "Hg10 mi
12:58 am48 °FMostly cloudy.No wind71%30.04 "Hg10 mi
12:38 am47 °FMostly cloudy.No wind71%30.04 "Hg10 mi
11:58 pm
Wed, Feb 22
48 °FPassing clouds.3 mph63%30.04 "Hg10 mi
11:38 pm47 °FPassing clouds.3 mph68%30.04 "Hg10 mi
11:18 pm47 °FPartly cloudy.3 mph70%30.04 "Hg10 mi
10:58 pm46 °FPassing clouds.3 mph75%30.05 "Hg10 mi
10:38 pm47 °FClear.8 mph75%30.04 "Hg10 mi
10:18 pm47 °FClear.3 mph72%30.04 "Hg10 mi
9:58 pm47 °FClear.No wind76%30.04 "Hg10 mi
7:50 pm54 °FPartly cloudy.5 mph63%30.04 "Hg7 mi
6:47 pm55 °FCool.9 mph63%30.04 "Hg7 mi
5:47 pm55 °FPassing clouds.12 mph55%30.02 "Hg7 mi
4:47 pm57 °FScattered clouds.14 mph51%30.01 "Hg10 mi
3:50 pm61 °FScattered clouds.14 mph45%30.01 "Hg7 mi
2:47 pm64 °FPartly sunny.9 mph40%30.02 "Hg10 mi
1:47 pm64 °FPartly sunny.8 mph34%30.03 "Hg10 mi
12:50 pm63 °FPartly sunny.9 mph45%30.06 "Hg7 mi
11:50 am59 °FPartly sunny.7 mph55%30.10 "Hg7 mi
10:50 am59 °FPartly sunny.No wind59%30.12 "Hg7 mi
Weather by CustomWeather, © 2017

See weather overviewHow to use our weather pages